Radiation Dose measured at exhaust stack monitor of Miscellaneous Solid Waste Incinerator Building/Incinerator raregas monitor
Date,Time,Incinerator Gas Monitor(cps),Wind Direction,Wind Velocity(m/s)
2022/05/29,00:00,1.5,west,4.2
2022/05/29,00:10,1.5,west-southwest,4.9
2022/05/29,00:20,1.5,west-southwest,4.3
2022/05/29,00:30,1.5,southwest,3.9
2022/05/29,00:40,1.4,west-southwest,4.9
2022/05/29,00:50,1.5,west-southwest,5.4
2022/05/29,01:00,1.5,west-southwest,5.4
2022/05/29,01:10,1.5,west,3.5
2022/05/29,01:20,1.5,west,3.1
2022/05/29,01:30,1.4,west,1.5
2022/05/29,01:40,1.5,west-southwest,1.7
2022/05/29,01:50,1.5,west,3.6
2022/05/29,02:00,1.6,west,4.4
2022/05/29,02:10,1.5,west,3.2
2022/05/29,02:20,1.4,west,3.5
2022/05/29,02:30,1.5,west,2.5
2022/05/29,02:40,1.4,west-southwest,4.3
2022/05/29,02:50,1.5,west-southwest,4.5
2022/05/29,03:00,1.4,west,2.9
2022/05/29,03:10,1.5,west-southwest,3.3
2022/05/29,03:20,1.5,west,5.8
2022/05/29,03:30,1.5,west,2.6
2022/05/29,03:40,1.4,west,2.3
2022/05/29,03:50,1.5,west-southwest,2.0
2022/05/29,04:00,1.5,southeast,2.8
2022/05/29,04:10,1.5,south-southeast,2.0
2022/05/29,04:20,1.5,south-southeast,2.6
2022/05/29,04:30,1.5,south-southeast,2.3
2022/05/29,04:40,1.5,southeast,3.5
2022/05/29,04:50,1.5,south-southeast,3.1
2022/05/29,05:00,1.5,south-southeast,3.3
2022/05/29,05:10,1.5,south-southeast,4.0
2022/05/29,05:20,1.5,south,4.2
2022/05/29,05:30,1.5,south,4.0
2022/05/29,05:40,1.5,south,3.7
2022/05/29,05:50,1.4,south-southwest,2.6
2022/05/29,06:00,1.5,south-southwest,4.1
2022/05/29,06:10,1.4,southwest,3.5
2022/05/29,06:20,1.6,southwest,3.1
2022/05/29,06:30,1.5,west-southwest,3.5
2022/05/29,06:40,1.4,west,3.1
2022/05/29,06:50,1.5,west,3.4
2022/05/29,07:00,1.4,west,3.2
2022/05/29,07:10,1.4,west,2.5
2022/05/29,07:20,1.4,west-southwest,1.1
2022/05/29,07:30,1.4,-,CALM
2022/05/29,07:40,1.4,-,CALM
2022/05/29,07:50,1.5,south-southeast,0.6
2022/05/29,08:00,1.5,west-southwest,1.2
2022/05/29,08:10,1.5,south-southeast,1.9
2022/05/29,08:20,1.5,southwest,1.9
2022/05/29,08:30,1.5,southwest,4.1
2022/05/29,08:40,1.5,west,3.9
2022/05/29,08:50,1.6,west-southwest,3.8
2022/05/29,09:00,1.5,west-southwest,5.3
2022/05/29,09:10,1.5,west-southwest,4.1
2022/05/29,09:20,1.4,west-southwest,4.3
2022/05/29,09:30,1.5,west-southwest,5.5
2022/05/29,09:40,1.5,west-southwest,5.1
2022/05/29,09:50,1.4,west-southwest,5.5
2022/05/29,10:00,1.4,west,4.9
2022/05/29,10:10,1.5,west-northwest,3.2
2022/05/29,10:20,1.5,west-northwest,4.2
2022/05/29,10:30,1.5,west,6.9
2022/05/29,10:40,1.5,west-northwest,6.3
2022/05/29,10:50,1.5,west,4.9
2022/05/29,11:00,1.5,west-southwest,5.5
2022/05/29,11:10,1.5,west,6.2
2022/05/29,11:20,1.4,west-southwest,6.0
2022/05/29,11:30,1.5,west,6.7
2022/05/29,11:40,1.4,west-southwest,6.3
2022/05/29,11:50,1.5,west-southwest,6.2
2022/05/29,12:00,1.5,west-southwest,5.6
2022/05/29,12:10,1.5,west,6.8
2022/05/29,12:20,1.5,west,5.8
2022/05/29,12:30,1.6,west,4.4
2022/05/29,12:40,1.5,west,6.2
2022/05/29,12:50,1.5,west,6.4
2022/05/29,13:00,1.4,west,5.2
2022/05/29,13:10,1.4,west,6.2
2022/05/29,13:20,1.5,west-southwest,5.2
2022/05/29,13:30,1.6,west,4.8
2022/05/29,13:40,1.5,west,5.4
2022/05/29,13:50,1.4,west,5.9
2022/05/29,14:00,1.4,west,7.1
2022/05/29,14:10,1.5,west,7.6
2022/05/29,14:20,1.4,west,7.2
2022/05/29,14:30,1.4,west,6.8
2022/05/29,14:40,1.5,west,6.3
2022/05/29,14:50,1.4,west-northwest,5.1
2022/05/29,15:00,1.5,northeast,2.0
2022/05/29,15:10,1.5,east-northeast,3.2
2022/05/29,15:20,1.5,east-northeast,3.2
2022/05/29,15:30,1.5,east-northeast,2.0
2022/05/29,15:40,1.5,north-northeast,2.6
2022/05/29,15:50,1.5,northeast,2.5
2022/05/29,16:00,1.5,northeast,3.0
2022/05/29,16:10,1.4,east-northeast,3.5
2022/05/29,16:20,1.5,east,4.9
2022/05/29,16:30,1.6,east-southeast,4.6
2022/05/29,16:40,1.5,east,4.2
2022/05/29,16:50,1.4,east,3.9
2022/05/29,17:00,1.5,east-northeast,2.6
2022/05/29,17:10,1.5,east-northeast,1.2
2022/05/29,17:20,1.5,east-northeast,2.5
2022/05/29,17:30,1.5,east-southeast,3.1
2022/05/29,17:40,1.5,east,3.4
2022/05/29,17:50,1.5,east-southeast,3.4
2022/05/29,18:00,1.5,east-southeast,2.9
2022/05/29,18:10,1.4,east,2.6
2022/05/29,18:20,1.4,east,1.1
2022/05/29,18:30,1.5,east,2.2
2022/05/29,18:40,1.5,east,2.0
2022/05/29,18:50,1.6,east-southeast,2.0
2022/05/29,19:00,1.5,east-southeast,1.2
2022/05/29,19:10,1.5,east,0.8
2022/05/29,19:20,1.6,southeast,1.5
2022/05/29,19:30,1.4,southeast,1.9
2022/05/29,19:40,1.5,south-southeast,1.5
2022/05/29,19:50,1.5,-,CALM
2022/05/29,20:00,1.5,-,CALM
2022/05/29,20:10,1.5,north-northwest,0.9
2022/05/29,20:20,1.4,east-southeast,1.7
2022/05/29,20:30,1.5,southeast,1.5
2022/05/29,20:40,1.3,northeast,1.2
2022/05/29,20:50,1.5,north,2.0
2022/05/29,21:00,1.5,north,3.5
2022/05/29,21:10,1.4,north,2.6
2022/05/29,21:20,1.4,north-northeast,2.6
2022/05/29,21:30,1.5,north-northeast,2.5
2022/05/29,21:40,1.5,north,2.0
2022/05/29,21:50,1.6,north,3.1
2022/05/29,22:00,1.4,north-northeast,3.7
2022/05/29,22:10,1.4,north,3.9
2022/05/29,22:20,1.5,north,3.4
2022/05/29,22:30,1.5,north-northeast,3.3
2022/05/29,22:40,1.5,north,0.8
2022/05/29,22:50,1.5,-,CALM
2022/05/29,23:00,1.5,north-northwest,2.8
2022/05/29,23:10,1.4,north-northwest,3.7
2022/05/29,23:20,1.5,north-northwest,3.5
2022/05/29,23:30,1.4,northwest,3.9
2022/05/29,23:40,1.5,northwest,3.4
2022/05/29,23:50,1.4,north-northwest,4.2
